Moses Lake, WA

2:30 PM PDT on August 24, 2016 (GMT -0700)
Grant County International

Weather History for KMWH - October, 2014

Change the Weather History Date:

Friday, October 3, 2014

  Actual Average Record
Temperature  
Mean Temperature 55 °F 55 °F  
Max Temperature 71 °F 70 °F 84 °F (2003)
Min Temperature 38 °F 40 °F 30 °F (1999)
Degree Days  
Heating Degree Days 10 10  
Month to date heating degree days 28 29  
Since 1 July heating degree days 80 179  
Cooling Degree Days 0 0  
Month to date cooling degree days 0 0  
Year to date cooling degree days 948 614  
Growing Degree Days 4 (Base 50)    
Moisture  
Dew Point 29 °F    
Average Humidity 42    
Maximum Humidity 62    
Minimum Humidity 22    
Precipitation  
Precipitation 0.00 in 0.02 in 0.46 in (2005)
Month to date precipitation 0.00 0.04  
Year to date precipitation 4.18 5.86  
Sea Level Pressure  
Sea Level Pressure 30.32 in    
Wind  
Wind Speed 5 mph (NNE)    
Max Wind Speed 10 mph    
Max Gust Speed 12 mph    
Visibility 10 miles    
Events      
T = Trace of Precipitation, MM = Missing Value Source: NWS Daily Summary

Daily Weather History Graph

Daily Weather History Graph

Search for Another Location

Airport or City:

Trip Planner

Search our weather history database for the weather conditions in past years. The results will help you decide how hot, cold, wet, or windy it might be!

Date:

Astronomy

Oct. 03, 2014 Rise Set
Actual Time 6:59 AM PDT 6:32 PM PDT
Civil Twilight 6:28 AM PDT 7:03 PM PDT
Nautical Twilight 5:53 AM PDT 7:38 PM PDT
Astronomical Twilight 5:17 AM PDT 8:14 PM PDT
Moon 3:47 PM PDT (10/3) 1:05 AM PDT (10/3)
Length of Visible Light 12h 34m
Length of Day
11h 33m
Waxing Gibbous, 72% of the Moon is Illuminated
Oct 3
Waxing Gibbous
Oct 8
Full
Oct 15
Last Quarter
Oct 23
New
Oct 30
First Quarter

Hourly Weather History & Observations

Time (PDT) Temp. Windchill Dew Point Humidity Pressure Visibility Wind Dir Wind Speed Gust Speed Precip Events Conditions
12:52 AM 44.6 °F 42.2 °F 32.0 °F 61% 30.35 in 10.0 mi NNE 4.6 mph - N/A   Clear
1:52 AM 44.1 °F 40.8 °F 28.0 °F 53% 30.36 in 10.0 mi North 5.8 mph - N/A   Clear
2:52 AM 42.1 °F 39.2 °F 26.1 °F 53% 30.37 in 10.0 mi NNE 4.6 mph - N/A   Clear
3:52 AM 42.1 °F 37.1 °F 25.0 °F 51% 30.37 in 10.0 mi North 8.1 mph - N/A   Clear
4:52 AM 39.9 °F 35.8 °F 25.0 °F 55% 30.37 in 10.0 mi North 5.8 mph - N/A   Clear
5:52 AM 39.0 °F 33.4 °F 25.0 °F 57% 30.38 in 10.0 mi North 8.1 mph - N/A   Clear
6:52 AM 39.0 °F 34.8 °F 25.0 °F 57% 30.39 in 10.0 mi North 5.8 mph - N/A   Clear
7:52 AM 41.0 °F 36.4 °F 25.0 °F 53% 30.39 in 10.0 mi North 6.9 mph - N/A   Clear
8:52 AM 46.0 °F 42.5 °F 26.1 °F 46% 30.40 in 10.0 mi NE 6.9 mph - N/A   Clear
9:52 AM 50.0 °F - 27.0 °F 41% 30.40 in 10.0 mi Calm Calm - N/A   Clear
10:52 AM 55.0 °F - 28.0 °F 35% 30.39 in 10.0 mi NE 3.5 mph - N/A   Scattered Clouds
11:52 AM 61.0 °F - 27.0 °F 27% 30.38 in 10.0 mi ESE 3.5 mph - N/A   Clear
12:52 PM 64.0 °F - 30.9 °F 29% 30.35 in 10.0 mi SW 3.5 mph - N/A   Clear
1:52 PM 66.2 °F - 30.2 °F 26% 30.32 in 10.0 mi WSW 4.6 mph - N/A   Scattered Clouds
2:52 PM 70.0 °F - 28.9 °F 22% 30.30 in 10.0 mi SW 8.1 mph - N/A   Clear
3:52 PM 70.0 °F - 30.0 °F 23% 30.28 in 10.0 mi SE 5.8 mph - N/A   Clear
4:52 PM 70.0 °F - 30.0 °F 23% 30.27 in 10.0 mi SSW 4.6 mph - N/A   Clear
5:52 PM 68.0 °F - 30.9 °F 25% 30.26 in 10.0 mi WSW 3.5 mph - N/A   Clear
6:52 PM 63.0 °F - 30.0 °F 29% 30.25 in 10.0 mi WNW 4.6 mph - N/A   Clear
7:52 PM 57.9 °F - 28.9 °F 33% 30.23 in 10.0 mi Calm Calm - N/A   Clear
8:52 PM 57.0 °F - 32.0 °F 39% 30.22 in 10.0 mi Calm Calm - N/A   Clear
9:52 PM 55.0 °F - 32.0 °F 42% 30.22 in 10.0 mi ENE 3.5 mph - N/A   Clear
10:52 PM 48.2 °F - 33.8 °F 58% 30.21 in 10.0 mi North 4.6 mph - N/A   Clear
11:52 PM 48.0 °F - 34.0 °F 58% 30.21 in 10.0 mi ENE 3.5 mph - N/A   Clear